Location: Caltech
(34.1382°N, 118.1253°W)
Time: 13:32:27
(UTC-07:00)

SL-16 R/B - Visible Passes

Search period start: 30 May 2015 00:00
Search period end: 09 June 2015 00:00
Orbit: 842 x 846 km, 71.0° (Epoch: 29 May)

Date Brightness Start Highest point End Pass type
(mag) Time Alt. Az. Time Alt. Az. Time Alt. Az.
30 May 5.8 04:29:43 10° NNE 04:31:45 12° NE 04:34:06 10° ENE visible
30 May 4.9 21:00:20 10° WSW 21:04:48 23° WNW 21:09:07 10° N visible
31 May 5.7 04:15:44 10° NNE 04:17:30 12° NE 04:19:36 10° ENE visible
31 May 4.9 20:46:02 10° WSW 20:50:34 23° WNW 20:54:59 10° N visible
01 Jun 5.7 04:01:48 10° NE 04:03:15 11° NE 04:05:04 10° ENE visible
01 Jun 4.9 20:31:43 10° WSW 20:36:20 24° WNW 20:40:50 10° N visible
02 Jun 5.7 03:47:56 10° NE 03:49:00 11° NE 03:50:26 10° ENE visible
03 Jun 5.7 03:34:16 10° NE 03:34:45 10° NE 03:35:38 10° ENE visible
04 Jun 2.4 05:00:02 10° NNW 05:05:43 78° ENE 05:11:22 10° SSE visible
05 Jun 2.5 04:45:50 10° NNW 04:51:30 75° ENE 04:57:10 10° SSE visible
06 Jun 2.5 04:31:38 10° NNW 04:37:18 72° ENE 04:42:57 10° SSE visible
07 Jun 2.5 04:17:26 10° NNW 04:23:06 69° ENE 04:28:44 10° SSE visible
08 Jun 2.6 04:03:15 10° NNW 04:08:54 67° ENE 04:14:31 10° SSE visible
